Location: Feigenhofen
(48.4939°N, 10.7793°E)
Time: 23:01:19
(UTC+00:00)

ERBS - Pass Details

Date: 26 May 2022
Orbit: 360 x 377 km, 57.0° (Epoch: 24 June)

Event Time Altitude Azimuth Distance (km) Brightness Sun altitude
Exits shadow 00:22:09 33° 107° (ESE) 647 3.1 -18.8°
Drops below altitude 10° 00:24:24 10° 67° (ENE) 1,374 5.4 -18.7°
Sets 00:26:32 0° 59° (ENE) 2,233 6.7 -18.5°
